Time,TemperatureF,DewpointF,PressureIn,WindDirection,WindDirectionDegrees,WindSpeedMPH,WindSpeedGustMPH,Humidity,HourlyPrecipIn,Conditions,Clouds,dailyrainin,SolarRadiationWatts/m^2,SoftwareType,DateUTC
2013-01-01 00:00:00,2.1,-2.1,30.36,NNW,337,3.0,4.0,82,0.00,,,0.00,0,Wunderground v.1.15,2013-01-01 06:00:00,
2013-01-01 00:10:00,1.5,-2.7,30.37,NNW,341,4.0,4.0,82,0.00,,,0.00,0,Wunderground v.1.15,2013-01-01 06:10:00,
2013-01-01 00:20:00,1.2,-2.8,30.37,NNW,346,3.0,4.0,83,0.00,,,0.00,0,Wunderground v.1.15,2013-01-01 06:20:00,
2013-01-01 00:30:00,1.0,-3.2,30.37,NNW,340,3.0,3.0,82,0.00,,,0.00,0,Wunderground v.1.15,2013-01-01 06:30:00,
2013-01-01 00:40:00,0.8,-3.2,30.37,NNW,342,3.0,3.0,83,0.00,,,0.00,0,Wunderground v.1.15,2013-01-01 06:40:00,
2013-01-01 00:50:00,0.5,-3.4,30.37,NNW,331,3.0,4.0,83,0.00,,,0.00,0,Wunderground v.1.15,2013-01-01 06:50:00,
2013-01-01 01:00:00,0.1,-3.8,30.37,NNW,336,2.0,2.0,83,0.00,,,0.00,0,Wunderground v.1.15,2013-01-01 07:00:00,
2013-01-01 01:10:00,-0.1,-3.8,30.37,NNW,346,3.0,3.0,84,0.00,,,0.00,0,Wunderground v.1.15,2013-01-01 07:10:00,
2013-01-01 01:20:00,-0.3,-4.2,30.37,NNW,340,4.0,4.0,83,0.00,,,0.00,0,Wunderground v.1.15,2013-01-01 07:20:00,
2013-01-01 01:30:00,-0.5,-4.2,30.37,NNW,346,4.0,4.0,84,0.00,,,0.00,0,Wunderground v.1.15,2013-01-01 07:30:00,
2013-01-01 01:40:00,-0.5,-4.2,30.37,NNW,342,4.0,6.0,84,0.00,,,0.00,0,Wunderground v.1.15,2013-01-01 07:40:00,
2013-01-01 01:50:00,-0.9,-4.8,30.37,North,350,5.0,5.0,83,0.00,,,0.00,0,Wunderground v.1.15,2013-01-01 07:50:00,
2013-01-01 02:00:00,-1.1,-4.8,30.37,NNW,338,6.0,6.0,84,0.00,,,0.00,0,Wunderground v.1.15,2013-01-01 08:00:00,
2013-01-01 02:10:00,-0.9,-4.6,30.37,NNW,338,5.0,5.0,84,0.00,,,0.00,0,Wunderground v.1.15,2013-01-01 08:10:00,
2013-01-01 02:20:00,-1.1,-5.0,30.38,NNW,341,5.0,5.0,83,0.00,,,0.00,0,Wunderground v.1.15,2013-01-01 08:20:00,
2013-01-01 02:30:00,-1.7,-5.9,30.39,NNW,340,4.0,4.0,82,0.00,,,0.00,0,Wunderground v.1.15,2013-01-01 08:30:00,
2013-01-01 02:40:00,-2.0,-5.9,30.40,NNW,344,3.0,3.0,83,0.00,,,0.00,0,Wunderground v.1.15,2013-01-01 08:40:00,
2013-01-01 02:50:00,-2.1,-6.0,30.40,North,349,3.0,4.0,83,0.00,,,0.00,0,Wunderground v.1.15,2013-01-01 08:50:00,
2013-01-01 03:00:00,-2.1,-6.0,30.40,North,355,4.0,4.0,83,0.00,,,0.00,0,Wunderground v.1.15,2013-01-01 09:00:00,
2013-01-01 03:10:00,-2.1,-6.0,30.39,North,355,3.0,3.0,83,0.00,,,0.00,0,Wunderground v.1.15,2013-01-01 09:10:00,
2013-01-01 03:20:00,-2.2,-6.1,30.40,North,355,3.0,3.0,83,0.00,,,0.00,0,Wunderground v.1.15,2013-01-01 09:20:00,
2013-01-01 03:30:00,-2.4,-6.3,30.40,NNW,346,3.0,3.0,83,0.00,,,0.00,0,Wunderground v.1.15,2013-01-01 09:30:00,
2013-01-01 03:40:00,-2.6,-6.5,30.39,North,355,3.0,3.0,83,0.00,,,0.00,0,Wunderground v.1.15,2013-01-01 09:40:00,
2013-01-01 03:50:00,-2.6,-6.5,30.40,North,355,3.0,3.0,83,0.00,,,0.00,0,Wunderground v.1.15,2013-01-01 09:50:00,
2013-01-01 04:00:00,-2.6,-6.5,30.39,North,349,2.0,2.0,83,0.00,,,0.00,0,Wunderground v.1.15,2013-01-01 10:00:00,
2013-01-01 04:10:00,-2.7,-6.6,30.39,North,32767,-999.0,0.0,83,0.00,,,0.00,0,Wunderground v.1.15,2013-01-01 10:10:00,
2013-01-01 04:20:00,-2.8,-6.7,30.39,North,32767,-999.0,0.0,83,0.00,,,0.00,0,Wunderground v.1.15,2013-01-01 10:20:00,
2013-01-01 04:30:00,-999.9,-99.9,30.39,North,32767,-999.0,0.0,255,-99.99,,,0.00,,Wunderground v.1.15,2013-01-01 10:30:00,
2013-01-01 04:40:00,-999.9,-99.9,30.39,North,355,2.0,2.0,255,-99.99,,,0.00,,Wunderground v.1.15,2013-01-01 10:40:00,
2013-01-01 04:50:00,-999.9,-99.9,30.39,NNW,344,1.0,1.0,255,-99.99,,,0.00,,Wunderground v.1.15,2013-01-01 10:50:00,
2013-01-01 05:00:00,-999.9,-99.9,30.39,NNW,344,0.0,0.0,255,-99.99,,,0.00,,Wunderground v.1.15,2013-01-01 11:00:00,
2013-01-01 05:10:00,-3.6,-7.7,30.39,NNW,344,0.0,0.0,82,0.00,,,0.00,0,Wunderground v.1.15,2013-01-01 11:10:00,
2013-01-01 05:20:00,-3.8,-7.9,30.38,NNW,344,0.0,0.0,82,0.00,,,0.00,0,Wunderground v.1.15,2013-01-01 11:20:00,
2013-01-01 05:30:00,-4.1,-8.0,30.38,NNW,344,0.0,0.0,83,0.00,,,0.00,0,Wunderground v.1.15,2013-01-01 11:30:00,
2013-01-01 05:40:00,-4.2,-8.3,30.38,NNW,344,0.0,0.0,82,0.00,,,0.00,0,Wunderground v.1.15,2013-01-01 11:40:00,
2013-01-01 05:50:00,-4.2,-7.8,30.38,North,32767,-999.0,0.0,84,0.00,,,0.00,0,Wunderground v.1.15,2013-01-01 11:50:00,
2013-01-01 06:00:00,-4.2,-8.1,30.38,North,32767,-999.0,0.0,83,0.00,,,0.00,0,Wunderground v.1.15,2013-01-01 12:00:00,
2013-01-01 06:10:00,-4.2,-8.1,30.38,North,32767,-999.0,0.0,83,0.00,,,0.00,0,Wunderground v.1.15,2013-01-01 12:10:00,
2013-01-01 06:20:00,-4.1,-7.7,30.38,North,32767,-999.0,0.0,84,0.00,,,0.00,0,Wunderground v.1.15,2013-01-01 12:20:00,
2013-01-01 06:30:00,-4.1,-8.0,30.38,North,32767,-999.0,0.0,83,0.00,,,0.00,0,Wunderground v.1.15,2013-01-01 12:30:00,
2013-01-01 06:40:00,-4.2,-7.8,30.39,North,32767,-999.0,0.0,84,0.00,,,0.00,0,Wunderground v.1.15,2013-01-01 12:40:00,
2013-01-01 06:50:00,-4.1,-8.0,30.39,North,32767,-999.0,0.0,83,0.00,,,0.00,0,Wunderground v.1.15,2013-01-01 12:50:00,
2013-01-01 07:00:00,-4.0,-7.6,30.39,North,32767,-999.0,0.0,84,0.00,,,0.00,0,Wunderground v.1.15,2013-01-01 13:00:00,
2013-01-01 07:10:00,-4.0,-7.6,30.39,North,32767,-999.0,0.0,84,0.00,,,0.00,0,Wunderground v.1.15,2013-01-01 13:10:00,
2013-01-01 07:20:00,-4.0,-7.9,30.39,North,32767,-999.0,0.0,83,0.00,,,0.00,0,Wunderground v.1.15,2013-01-01 13:20:00,
2013-01-01 07:30:00,-4.0,-7.6,30.39,North,32767,-999.0,0.0,84,0.00,,,0.00,0,Wunderground v.1.15,2013-01-01 13:30:00,
2013-01-01 07:40:00,-3.9,-7.8,30.39,North,32767,-999.0,0.0,83,0.00,,,0.00,0,Wunderground v.1.15,2013-01-01 13:40:00,
2013-01-01 07:50:00,-3.9,-7.8,30.39,NNW,340,1.0,1.0,83,0.00,,,0.00,5,Wunderground v.1.15,2013-01-01 13:50:00,
2013-01-01 08:00:00,-3.8,-7.4,30.39,NNW,340,0.0,0.0,84,0.00,,,0.00,9,Wunderground v.1.15,2013-01-01 14:00:00,
2013-01-01 08:10:00,-3.7,-7.3,30.39,NNW,340,0.0,0.0,84,0.00,,,0.00,14,Wunderground v.1.15,2013-01-01 14:10:00,
2013-01-01 08:20:00,-3.4,-7.0,30.39,NNW,340,0.0,0.0,84,0.00,,,0.00,32,Wunderground v.1.15,2013-01-01 14:20:00,
2013-01-01 08:30:00,-1.5,-4.9,30.39,NNW,340,1.0,1.0,85,0.00,,,0.00,58,Wunderground v.1.15,2013-01-01 14:30:00,
2013-01-01 08:40:00,-0.2,-3.9,30.39,NW,314,2.0,2.0,84,0.00,,,0.00,65,Wunderground v.1.15,2013-01-01 14:40:00,
2013-01-01 08:50:00,0.1,-3.8,30.40,WNW,300,1.0,2.0,83,0.00,,,0.00,76,Wunderground v.1.15,2013-01-01 14:50:00,
2013-01-01 09:00:00,0.3,-3.6,30.40,NNW,327,1.0,3.0,83,0.00,,,0.00,77,Wunderground v.1.15,2013-01-01 15:00:00,
2013-01-01 09:10:00,0.6,-3.3,30.40,North,350,1.0,1.0,83,0.00,,,0.00,88,Wunderground v.1.15,2013-01-01 15:10:00,
2013-01-01 09:20:00,1.6,-2.6,30.40,North,350,1.0,1.0,82,0.00,,,0.00,95,Wunderground v.1.15,2013-01-01 15:20:00,
2013-01-01 09:30:00,2.7,-1.3,30.40,North,350,0.0,0.0,83,0.00,,,0.00,109,Wunderground v.1.15,2013-01-01 15:30:00,
2013-01-01 09:40:00,3.3,-1.5,30.41,NNW,334,0.0,1.0,80,0.00,,,0.00,116,Wunderground v.1.15,2013-01-01 15:40:00,
2013-01-01 09:50:00,4.0,-0.5,30.41,NNW,334,0.0,0.0,81,0.00,,,0.00,134,Wunderground v.1.15,2013-01-01 15:50:00,
2013-01-01 10:00:00,4.5,0.0,30.41,NW,318,1.0,1.0,81,0.00,,,0.00,141,Wunderground v.1.15,2013-01-01 16:00:00,
2013-01-01 10:10:00,4.7,-0.4,30.41,NW,311,1.0,1.0,79,0.00,,,0.00,153,Wunderground v.1.15,2013-01-01 16:10:00,
2013-01-01 10:20:00,5.0,0.2,30.41,NW,325,1.0,1.0,80,0.00,,,0.00,162,Wunderground v.1.15,2013-01-01 16:20:00,
2013-01-01 10:30:00,5.6,0.8,30.42,North,360,1.0,1.0,80,0.00,,,0.00,171,Wunderground v.1.15,2013-01-01 16:30:00,
2013-01-01 10:40:00,6.6,1.7,30.42,West,276,1.0,1.0,80,0.00,,,0.00,183,Wunderground v.1.15,2013-01-01 16:40:00,
2013-01-01 10:50:00,7.6,1.6,30.42,SW,217,0.0,1.0,76,0.00,,,0.00,186,Wunderground v.1.15,2013-01-01 16:50:00,
2013-01-01 11:00:00,8.3,1.7,30.42,SW,216,2.0,3.0,74,0.00,,,0.00,188,Wunderground v.1.15,2013-01-01 17:00:00,
2013-01-01 11:10:00,7.7,2.0,30.42,SSW,204,3.0,4.0,77,0.00,,,0.00,200,Wunderground v.1.15,2013-01-01 17:10:00,
2013-01-01 11:20:00,7.4,2.0,30.42,SSW,197,3.0,3.0,78,0.00,,,0.00,206,Wunderground v.1.15,2013-01-01 17:20:00,
2013-01-01 11:30:00,7.7,2.5,30.42,SSW,202,2.0,2.0,79,0.00,,,0.00,213,Wunderground v.1.15,2013-01-01 17:30:00,
2013-01-01 11:40:00,8.0,2.8,30.42,North,32767,-999.0,0.0,79,0.00,,,0.00,218,Wunderground v.1.15,2013-01-01 17:40:00,
2013-01-01 11:50:00,8.5,3.3,30.41,North,32767,-999.0,0.0,79,0.00,,,0.00,229,Wunderground v.1.15,2013-01-01 17:50:00,
2013-01-01 12:00:00,9.2,3.7,30.40,North,32767,-999.0,0.0,78,0.00,,,0.00,239,Wunderground v.1.15,2013-01-01 18:00:00,
2013-01-01 12:10:00,9.2,4.0,30.40,North,32767,-999.0,0.0,79,0.00,,,0.00,236,Wunderground v.1.15,2013-01-01 18:10:00,
2013-01-01 12:20:00,10.2,4.7,30.39,North,32767,-999.0,0.0,78,0.00,,,0.00,236,Wunderground v.1.15,2013-01-01 18:20:00,
2013-01-01 12:30:00,11.1,5.3,30.39,SSW,208,5.0,5.0,77,0.00,,,0.00,232,Wunderground v.1.15,2013-01-01 18:30:00,
2013-01-01 12:40:00,11.6,5.8,30.38,SSW,205,5.0,5.0,77,0.00,,,0.00,232,Wunderground v.1.15,2013-01-01 18:40:00,
2013-01-01 12:50:00,12.6,6.8,30.38,SSW,205,5.0,5.0,77,0.00,,,0.00,232,Wunderground v.1.15,2013-01-01 18:50:00,
2013-01-01 13:00:00,12.5,6.9,30.38,SSW,210,5.0,5.0,78,0.00,,,0.00,230,Wunderground v.1.15,2013-01-01 19:00:00,
2013-01-01 13:10:00,12.6,7.0,30.37,SW,217,4.0,4.0,78,0.00,,,0.00,220,Wunderground v.1.15,2013-01-01 19:10:00,
2013-01-01 13:20:00,-999.9,-99.9,30.36,SW,226,4.0,6.0,255,-99.99,,,0.00,,Wunderground v.1.15,2013-01-01 19:20:00,
2013-01-01 13:30:00,-999.9,-99.9,30.36,SW,233,6.0,6.0,255,-99.99,,,0.00,,Wunderground v.1.15,2013-01-01 19:30:00,
2013-01-01 13:40:00,15.0,7.9,30.36,SW,233,7.0,7.0,73,0.00,,,0.00,202,Wunderground v.1.15,2013-01-01 19:40:00,
2013-01-01 13:50:00,15.2,7.8,30.36,SW,236,7.0,7.0,72,0.00,,,0.00,232,Wunderground v.1.15,2013-01-01 19:50:00,
2013-01-01 14:00:00,15.3,7.9,30.36,SW,223,5.0,5.0,72,0.00,,,0.00,199,Wunderground v.1.15,2013-01-01 20:00:00,
2013-01-01 14:10:00,15.8,8.7,30.35,WSW,248,5.0,6.0,73,0.00,,,0.00,206,Wunderground v.1.15,2013-01-01 20:10:00,
2013-01-01 14:20:00,16.3,9.2,30.35,WSW,253,5.0,5.0,73,0.00,,,0.00,176,Wunderground v.1.15,2013-01-01 20:20:00,
2013-01-01 14:30:00,16.3,9.5,30.35,WSW,238,5.0,6.0,74,0.00,,,0.00,160,Wunderground v.1.15,2013-01-01 20:30:00,
2013-01-01 14:40:00,16.4,9.6,30.35,SW,229,6.0,6.0,74,0.00,,,0.00,162,Wunderground v.1.15,2013-01-01 20:40:00,
2013-01-01 14:50:00,16.5,10.0,30.35,SW,226,6.0,8.0,75,0.00,,,0.00,137,Wunderground v.1.15,2013-01-01 20:50:00,
2013-01-01 15:00:00,16.6,10.1,30.35,WSW,250,5.0,5.0,75,0.00,,,0.00,139,Wunderground v.1.15,2013-01-01 21:00:00,
2013-01-01 15:10:00,16.7,10.1,30.35,WSW,244,5.0,5.0,75,0.00,,,0.00,181,Wunderground v.1.15,2013-01-01 21:10:00,
2013-01-01 15:20:00,16.7,10.1,30.34,SSW,207,4.0,4.0,75,0.00,,,0.00,132,Wunderground v.1.15,2013-01-01 21:20:00,
2013-01-01 15:30:00,16.8,10.2,30.34,SSW,200,4.0,4.0,75,0.00,,,0.00,81,Wunderground v.1.15,2013-01-01 21:30:00,
2013-01-01 15:40:00,16.8,10.8,30.34,SW,218,5.0,5.0,77,0.00,,,0.00,98,Wunderground v.1.15,2013-01-01 21:40:00,
2013-01-01 15:50:00,16.6,10.6,30.33,North,32767,-999.0,0.0,77,0.00,,,0.00,104,Wunderground v.1.15,2013-01-01 21:50:00,
2013-01-01 16:00:00,16.1,10.2,30.33,North,32767,-999.0,0.0,77,0.00,,,0.00,51,Wunderground v.1.15,2013-01-01 22:00:00,
2013-01-01 16:10:00,15.8,9.9,30.33,North,32767,-999.0,0.0,77,0.00,,,0.00,42,Wunderground v.1.15,2013-01-01 22:10:00,
2013-01-01 16:20:00,15.4,9.2,30.33,South,178,6.0,6.0,76,0.00,,,0.00,33,Wunderground v.1.15,2013-01-01 22:20:00,
2013-01-01 16:30:00,14.9,8.7,30.33,SSW,197,5.0,6.0,76,0.00,,,0.00,26,Wunderground v.1.15,2013-01-01 22:30:00,
2013-01-01 16:40:00,14.5,8.6,30.33,SSW,194,4.0,4.0,77,0.00,,,0.00,14,Wunderground v.1.15,2013-01-01 22:40:00,
2013-01-01 16:50:00,13.9,8.0,30.32,South,184,4.0,4.0,77,0.00,,,0.00,9,Wunderground v.1.15,2013-01-01 22:50:00,
2013-01-01 17:00:00,13.2,7.3,30.32,SSW,194,4.0,5.0,77,0.00,,,0.00,5,Wunderground v.1.15,2013-01-01 23:00:00,
2013-01-01 17:10:00,12.5,6.7,30.32,South,180,3.0,3.0,77,0.00,,,0.00,0,Wunderground v.1.15,2013-01-01 23:10:00,
2013-01-01 17:20:00,11.8,6.0,30.31,South,180,3.0,3.0,77,0.00,,,0.00,0,Wunderground v.1.15,2013-01-01 23:20:00,
2013-01-01 17:30:00,11.3,5.5,30.31,South,190,3.0,3.0,77,0.00,,,0.00,0,Wunderground v.1.15,2013-01-01 23:30:00,
2013-01-01 17:40:00,11.0,5.5,30.31,South,188,3.0,4.0,78,0.00,,,0.00,0,Wunderground v.1.15,2013-01-01 23:40:00,
2013-01-01 17:50:00,10.7,4.9,30.30,South,169,4.0,4.0,77,0.00,,,0.00,0,Wunderground v.1.15,2013-01-01 23:50:00,
2013-01-01 18:00:00,10.4,4.6,30.30,South,177,3.0,4.0,77,0.00,,,0.00,0,Wunderground v.1.15,2013-01-02 00:00:00,
2013-01-01 18:10:00,10.0,4.2,30.30,South,173,3.0,3.0,77,0.00,,,0.00,0,Wunderground v.1.15,2013-01-02 00:10:00,
2013-01-01 18:20:00,10.2,4.4,30.30,South,171,3.0,3.0,77,0.00,,,0.00,0,Wunderground v.1.15,2013-01-02 00:20:00,
2013-01-01 18:30:00,9.7,3.9,30.30,South,178,3.0,5.0,77,0.00,,,0.00,0,Wunderground v.1.15,2013-01-02 00:30:00,
2013-01-01 18:40:00,9.1,3.4,30.31,South,188,4.0,5.0,77,0.00,,,0.00,0,Wunderground v.1.15,2013-01-02 00:40:00,
2013-01-01 18:50:00,8.5,2.8,30.30,South,169,4.0,4.0,77,0.00,,,0.00,0,Wunderground v.1.15,2013-01-02 00:50:00,
2013-01-01 19:00:00,8.4,2.9,30.29,South,182,4.0,5.0,78,0.00,,,0.00,0,Wunderground v.1.15,2013-01-02 01:00:00,
2013-01-01 19:10:00,8.1,2.7,30.29,South,180,4.0,4.0,78,0.00,,,0.00,0,Wunderground v.1.15,2013-01-02 01:10:00,
2013-01-01 19:20:00,8.0,2.8,30.30,SSW,192,4.0,4.0,79,0.00,,,0.00,0,Wunderground v.1.15,2013-01-02 01:20:00,
2013-01-01 19:30:00,7.8,2.6,30.29,South,175,4.0,4.0,79,0.00,,,0.00,0,Wunderground v.1.15,2013-01-02 01:30:00,
2013-01-01 19:40:00,7.7,2.5,30.29,South,175,4.0,4.0,79,0.00,,,0.00,0,Wunderground v.1.15,2013-01-02 01:40:00,
2013-01-01 19:50:00,7.5,2.3,30.29,SSE,163,3.0,4.0,79,0.00,,,0.00,0,Wunderground v.1.15,2013-01-02 01:50:00,
2013-01-01 20:00:00,7.5,2.6,30.28,South,179,4.0,4.0,80,0.00,,,0.00,0,Wunderground v.1.15,2013-01-02 02:00:00,
2013-01-01 20:10:00,7.6,2.7,30.28,South,173,4.0,4.0,80,0.00,,,0.00,0,Wunderground v.1.15,2013-01-02 02:10:00,
2013-01-01 20:20:00,7.3,2.2,30.27,South,175,4.0,4.0,79,0.00,,,0.00,0,Wunderground v.1.15,2013-01-02 02:20:00,
2013-01-01 20:30:00,7.7,2.8,30.27,South,178,4.0,4.0,80,0.00,,,0.00,0,Wunderground v.1.15,2013-01-02 02:30:00,
2013-01-01 20:40:00,7.4,2.3,30.27,South,182,5.0,5.0,79,0.00,,,0.00,0,Wunderground v.1.15,2013-01-02 02:40:00,
2013-01-01 20:50:00,7.0,2.1,30.28,South,171,4.0,5.0,80,0.00,,,0.00,0,Wunderground v.1.15,2013-01-02 02:50:00,
2013-01-01 21:00:00,6.8,1.9,30.28,SSE,168,5.0,5.0,80,0.00,,,0.00,0,Wunderground v.1.15,2013-01-02 03:00:00,
2013-01-01 21:10:00,6.9,2.0,30.27,South,170,6.0,6.0,80,0.00,,,0.00,0,Wunderground v.1.15,2013-01-02 03:10:00,
2013-01-01 21:20:00,6.5,1.6,30.27,South,190,6.0,6.0,80,0.00,,,0.00,0,Wunderground v.1.15,2013-01-02 03:20:00,
2013-01-01 21:30:00,6.0,1.2,30.26,South,173,5.0,5.0,80,0.00,,,0.00,0,Wunderground v.1.15,2013-01-02 03:30:00,
2013-01-01 21:40:00,6.0,1.4,30.26,South,179,5.0,5.0,81,0.00,,,0.00,0,Wunderground v.1.15,2013-01-02 03:40:00,
2013-01-01 21:50:00,6.1,1.5,30.26,SSE,155,5.0,5.0,81,0.00,,,0.00,0,Wunderground v.1.15,2013-01-02 03:50:00,
2013-01-01 22:00:00,6.1,1.5,30.26,South,182,5.0,5.0,81,0.00,,,0.00,0,Wunderground v.1.15,2013-01-02 04:00:00,
2013-01-01 22:10:00,6.3,1.7,30.25,South,171,4.0,5.0,81,0.00,,,0.00,0,Wunderground v.1.15,2013-01-02 04:10:00,
2013-01-01 22:20:00,6.5,1.9,30.25,South,183,3.0,3.0,81,0.00,,,0.00,0,Wunderground v.1.15,2013-01-02 04:20:00,
2013-01-01 22:30:00,6.3,1.7,30.25,South,180,3.0,5.0,81,0.00,,,0.00,0,Wunderground v.1.15,2013-01-02 04:30:00,
2013-01-01 22:40:00,6.4,2.1,30.25,South,179,3.0,3.0,82,0.00,,,0.00,0,Wunderground v.1.15,2013-01-02 04:40:00,
2013-01-01 22:50:00,6.3,2.0,30.24,SSE,163,3.0,3.0,82,0.00,,,0.00,0,Wunderground v.1.15,2013-01-02 04:50:00,
2013-01-01 23:00:00,6.1,1.5,30.24,South,174,3.0,3.0,81,0.00,,,0.00,0,Wunderground v.1.15,2013-01-02 05:00:00,
2013-01-01 23:10:00,5.9,1.6,30.24,South,171,3.0,3.0,82,0.00,,,0.00,0,Wunderground v.1.15,2013-01-02 05:10:00,
2013-01-01 23:20:00,5.8,1.5,30.23,South,171,1.0,3.0,82,0.00,,,0.00,0,Wunderground v.1.15,2013-01-02 05:20:00,
2013-01-01 23:30:00,6.0,1.9,30.23,SSE,167,3.0,3.0,83,0.00,,,0.00,0,Wunderground v.1.15,2013-01-02 05:30:00,
2013-01-01 23:40:00,6.4,2.3,30.22,SSE,161,3.0,3.0,83,0.00,,,0.00,0,Wunderground v.1.15,2013-01-02 05:40:00,
2013-01-01 23:50:00,6.4,2.1,30.22,South,171,4.0,5.0,82,0.00,,,0.00,0,Wunderground v.1.15,2013-01-02 05:50:00,